Regional Weather Roundup
Issued by NWS Mobile, AL

Home | Current Version | Previous Version | Text Only | Print | Product List | Glossary On
Versions: 1 2 3 4 5 6 7 8 9 10 11 12 13 14 15 16 17 18 19 20 21 22 23 24 25 26 27 28 29 30 31 32 33 34 35 36 37 38 39 40 41 42 43 44 45 46 47 48 49 50
000
ASUS44 KMOB 272112
RWRMOB
REGIONAL WEATHER ROUNDUP
NATIONAL WEATHER SERVICE MOBILE AL
400 PM CDT WED JUL 27 2016

NOTE: "FAIR" INDICATES FEW OR NO CLOUDS BELOW 12,000 FEET WITH NO
      SIGNIFICANT WEATHER AND/OR OBSTRUCTIONS TO VISIBILITY.

  * THESE STATIONS ARE PART OF THE UNIVERSITY OF SOUTH ALABAMA
    MESONET AND ARE NOT UNDER NWS OR FAA QUALITY CONTROL.

ALZ061>064-272200-
COASTAL ALABAMA

CITY           SKY/WX    TMP DP  RH WIND       PRES   REMARKS
MOBILE REG APT MOSUNNY   87  73  62 SW13      30.03F
BROOKLEY FIELD PTSUNNY   86  74  67 S10G17    30.03F
USA CAMPUS*    NOT AVBL
DOG RIVER*     NOT AVBL


CITY           SKY/WX    TMP DP  RH WIND       PRES   REMARKS
MOUNT VERNON*  NOT AVBL
SARALAND*      NOT AVBL
BAY MINETTE*   NOT AVBL
LOXLEY*        NOT AVBL
ROBERTSDALE*   NOT AVBL
FAIRHOPE*      NOT AVBL
ELBERTA*       NOT AVBL
FOLEY*         NOT AVBL
GRAND BAY*     NOT AVBL
DAUPHIN ISLND* NOT AVBL
BON SCOUR NWR* NOT AVBL
GULF SHORES    PTSUNNY   88  78  72 S15G22    30.03S HX 102

$$

ALZ051>060-272200-
INTERIOR SOUTHWEST AND SOUTH CENTRAL ALABAMA

CITY           SKY/WX    TMP DP  RH WIND       PRES   REMARKS
GREENVILLE     MOSUNNY   88  71  57 SW8       30.01F
EVERGREEN      PTSUNNY   87  75  67 S15       30.02F HX  96
CASTLEBERRY*   NOT AVBL
ATMORE*        NOT AVBL
DIXIE*         NOT AVBL
ANDALUSIA/OPP  PTSUNNY   93  73  52 SW10      30.01F HX 102
ANDALUSIA*     NOT AVBL
FLORALA APT    MOSUNNY   90  71  53 SW8G21    30.04F HX  96
FLORALA*       NOT AVBL

$$

FLZ001>006-272200-
WESTERN FLORIDA PANHANDLE

CITY           SKY/WX    TMP DP  RH WIND       PRES   REMARKS
PENSACOLA      PTSUNNY   90  76  63 S16       30.02F HX 101
NAS PENSACOLA  MOSUNNY   90  75  61 SW16      30.02F HX 100
MILTON         MOSUNNY   90  74  59 S17G24    30.02F HX  99
WHTNG S FIELD  MOSUNNY   92  77  61 S13       30.02F HX 105


CITY           SKY/WX    TMP DP  RH WIND       PRES   REMARKS
WALNUT HILL*   NOT AVBL
JAY*           NOT AVBL
DUKE FIELD     MOSUNNY   90  72  55 S17       30.02F HX  97
CRESTVIEW      MOSUNNY   91  72  53 S13G22    30.04F HX  98
VALPARAISO     MOSUNNY   90  75  61 S13       30.03F HX 100
DESTIN         MOSUNNY   92  78  63 VRB6      30.03F HX 107

$$

MSZ076-079-272200-
INTERIOR SOUTHEAST MISSISSIPPI

CITY           SKY/WX    TMP DP  RH WIND       PRES   REMARKS
LEAKESVILLE*   NOT AVBL
AGRICOLA*      NOT AVBL

$$

MARINE OBSERVATIONS

STATION/POSITION TIME  TEMP    WIND        PRES    WAVE
                       AIR SEA DIR/SP/G            HT/PER
                 (UTC) (F)     (DEG/KT/KT) (MB)    (FT/S)
PASCAGOULA       2000   87     230/  8/ 14 1016.9F
PETIT BOIS ISLND 2000   85     240/  6/  9 1017.8F
GRAND BAY        1900   87     220/  7     1019.0
KATRINA CUT      2000   81     300/ 11     1018.3S
CEDAR POINT      2000   83     270/ 15     1017.3F
E DAUPHIN ISLAND 2000   87     180/ 12/ 15 1017.0F
MIDDLE BAY LIGHT 2000   85     200/ 12     1016.9F
USCG MOBILE BAY  2000   88 87  200/  8/ 14 1017.2F
STATE DOCKS      2000   89 88              1016.4F
MEAHER PARK      2000   86     180/ 15     1016.9F
WEEKS BAY        1900   89                   N/A
FORT MORGAN      2000   86     220/ 17/ 18 1016.8F
12 S ORANGE BCH  2050   86 87  200/ 14/ 16 1016.9F   3/ 5
PENSACOLA BAY    2000   88 88  210/  9/ 17 1017.5F
64 S DAUPHIN ISL 2100   86 87  190/ 10/ 12 1016.4F
67 S FORT MORGAN 2030   84     200/ 12     1017.3F

$$

SELECTED LOCATIONS ACROSS THE REGION

CITY           SKY/WX    TMP DP  RH WIND       PRES   REMARKS
NEW ORLEANS    PTSUNNY   84  71  65 SW14      30.04F
GULFPORT       SUNNY     87  72  60 W9        30.01F
PASCAGOULA AP  MOSUNNY   88  78  72 VRB7G16   30.02F HX 101
PASCAGOULA*    NOT AVBL
HATTIESBURG    PTSUNNY   84  71  65 SW15G22   30.01S
LAUREL         PTSUNNY   75  72  88 SW7       30.03R
MERIDIAN       PTSUNNY   88  77  69 SW12      29.96F HX 100
JACKSON        CLOUDY    81  75  82 SW9       29.96R
MONTGOMERY     PTSUNNY   84  73  69 W6        30.02F
TROY           PTSUNNY   89  73  59 S7        30.02F HX  97
KINSTON*       NOT AVBL
GENEVA*        NOT AVBL
ASHFORD*       NOT AVBL
DOTHAN         PTSUNNY   89  72  56 SW12      30.06F HX  96
PANAMA CITY    MOSUNNY   89  75  63 S13       30.03F HX  99

$$




USA.gov is the U.S. government's official web portal to all federal, state and local government web resources and services.